When you browse on this site, cookies collect data to enhance your experience and personalize the content and advertising you see.
Visit our Privacy Policy to learn more. By continuing to use the site, you agree to this use of cookies and data.
  • In Hungary
  • List of Countries
  • For 7 days
  • Water Temperature
  • Satellite Maps
  • Weather Map
  • News
  • Weather Widgets
  • user-avatar
    Login

    Hourly Weather A Coruna

    Today, 26 March, Tuesday

    Time Temperature Precipitation Wind Pressure Humidity
    00:00 +10°C° 0 mm 7 mps 766 mmHg 57%
    01:00 +9°C° 0 mm 7 mps 765 mmHg 59%
    02:00 +9°C° 0 mm 7 mps 765 mmHg 60%
    03:00 +9°C° 0 mm 7 mps 765 mmHg 61%
    04:00 +9°C° 0 mm 6 mps 765 mmHg 63%
    05:00 +9°C° 0 mm 6 mps 765 mmHg 64%
    06:00 +10°C° 0 mm 6 mps 765 mmHg 61%
    07:00 +11°C° 0 mm 6 mps 765 mmHg 58%
    08:00 +13°C° 0 mm 6 mps 765 mmHg 55%
    09:00 +14°C° 0 mm 6 mps 764 mmHg 50%
    10:00 +16°C° 0 mm 6 mps 764 mmHg 46%
    11:00 +17°C° 0 mm 7 mps 764 mmHg 41%
    12:00 +17°C° 0 mm 7 mps 764 mmHg 41%
    13:00 +18°C° 0 mm 7 mps 764 mmHg 41%
    14:00 +18°C° 0 mm 7 mps 763 mmHg 41%
    15:00 +17°C° 0 mm 7 mps 763 mmHg 45%
    16:00 +15°C° 0 mm 7 mps 763 mmHg 49%
    17:00 +14°C° 0 mm 7 mps 763 mmHg 53%
    18:00 +13°C° 0 mm 6 mps 764 mmHg 56%
    19:00 +11°C° 0 mm 6 mps 765 mmHg 59%
    20:00 +9°C° 0 mm 6 mps 765 mmHg 62%
    21:00 +9°C° 0 mm 5 mps 766 mmHg 63%
    22:00 +9°C° 0 mm 5 mps 766 mmHg 65%
    23:00 +8°C° 0 mm 5 mps 766 mmHg 67%

    Tomorrow, 27 March, Wednesday

    Time Temperature Precipitation Wind Pressure Humidity
    00:00 +8°C° 0 mm 5 mps 766 mmHg 67%
    01:00 +8°C° 0 mm 5 mps 766 mmHg 68%
    02:00 +8°C° 0 mm 5 mps 766 mmHg 68%
    03:00 +8°C° 0 mm 4 mps 766 mmHg 68%
    04:00 +7°C° 0 mm 4 mps 766 mmHg 68%
    05:00 +7°C° 0 mm 4 mps 767 mmHg 69%
    06:00 +10°C° 0 mm 4 mps 767 mmHg 63%
    07:00 +11°C° 0 mm 3 mps 767 mmHg 57%
    08:00 +13°C° 0 mm 3 mps 768 mmHg 52%
    09:00 +15°C° 0 mm 4 mps 768 mmHg 46%
    10:00 +18°C° 0 mm 4 mps 768 mmHg 40%
    11:00 +20°C° 0 mm 4 mps 768 mmHg 35%
    12:00 +20°C° 0 mm 5 mps 767 mmHg 36%
    13:00 +20°C° 0 mm 6 mps 767 mmHg 38%
    14:00 +20°C° 0 mm 6 mps 767 mmHg 39%
    15:00 +19°C° 0 mm 6 mps 767 mmHg 42%
    16:00 +16°C° 0 mm 6 mps 767 mmHg 46%
    17:00 +15°C° 0 mm 6 mps 767 mmHg 49%
    18:00 +14°C° 0 mm 6 mps 768 mmHg 50%
    19:00 +11°C° 0 mm 6 mps 768 mmHg 51%
    20:00 +10°C° 0 mm 6 mps 769 mmHg 52%
    21:00 +10°C° 0 mm 5 mps 769 mmHg 52%
    22:00 +10°C° 0 mm 5 mps 769 mmHg 51%
    23:00 +9°C° 0 mm 5 mps 769 mmHg 51%

    Day after tomorrow, 28 March, Thursday

    Time Temperature Precipitation Wind Pressure Humidity
    00:00 +9°C° 0 mm 5 mps 769 mmHg 53%
    01:00 +9°C° 0 mm 5 mps 769 mmHg 55%
    02:00 +8°C° 0 mm 4 mps 769 mmHg 57%
    03:00 +8°C° 0 mm 4 mps 769 mmHg 59%
    04:00 +8°C° 0 mm 4 mps 769 mmHg 61%
    05:00 +8°C° 0 mm 4 mps 770 mmHg 63%
    06:00 +10°C° 0 mm 4 mps 770 mmHg 60%
    07:00 +12°C° 0 mm 4 mps 770 mmHg 56%
    08:00 +13°C° 0 mm 4 mps 770 mmHg 53%
    09:00 +15°C° 0 mm 4 mps 770 mmHg 49%
    10:00 +18°C° 0 mm 4 mps 769 mmHg 45%
    11:00 +20°C° 0 mm 5 mps 769 mmHg 41%
    12:00 +20°C° 0 mm 5 mps 769 mmHg 42%
    13:00 +21°C° 0 mm 5 mps 768 mmHg 42%
    14:00 +21°C° 0 mm 6 mps 768 mmHg 43%
    15:00 +20°C° 0 mm 6 mps 767 mmHg 50%
    16:00 +17°C° 0 mm 5 mps 767 mmHg 56%
    17:00 +16°C° 0 mm 5 mps 767 mmHg 62%
    18:00 +14°C° 0 mm 5 mps 767 mmHg 68%
    19:00 +13°C° 0 mm 4 mps 768 mmHg 73%
    20:00 +11°C° 0 mm 4 mps 768 mmHg 79%
    21:00 +10°C° 0 mm 4 mps 768 mmHg 81%
    22:00 +10°C° 0 mm 3 mps 768 mmHg 83%
    23:00 +9°C° 0 mm 3 mps 768 mmHg 85%

    29 March, Friday

    Time Temperature Precipitation Wind Pressure Humidity
    00:00 +9°C° 0 mm 3 mps 768 mmHg 86%
    01:00 +9°C° 0 mm 3 mps 767 mmHg 88%
    02:00 +9°C° 0 mm 3 mps 767 mmHg 89%
    03:00 +9°C° 0 mm 3 mps 767 mmHg 89%
    04:00 +9°C° 0 mm 3 mps 766 mmHg 89%
    05:00 +8°C° 0 mm 3 mps 766 mmHg 89%
    06:00 +10°C° 0 mm 2 mps 766 mmHg 80%
    07:00 +13°C° 0 mm 2 mps 766 mmHg 71%
    08:00 +15°C° 0 mm 2 mps 766 mmHg 62%
    09:00 +18°C° 0 mm 2 mps 765 mmHg 55%
    10:00 +20°C° 0 mm 2 mps 765 mmHg 48%
    11:00 +24°C° 0 mm 2 mps 765 mmHg 41%
    12:00 +23°C° 0 mm 2 mps 765 mmHg 42%
    13:00 +22°C° 0 mm 3 mps 764 mmHg 43%
    14:00 +22°C° 0 mm 3 mps 764 mmHg 45%
    15:00 +20°C° 0 mm 3 mps 764 mmHg 51%
    16:00 +19°C° 0 mm 3 mps 763 mmHg 58%
    17:00 +18°C° 0 mm 2 mps 763 mmHg 64%
    18:00 +16°C° 0 mm 2 mps 764 mmHg 71%
    19:00 +14°C° 0 mm 2 mps 764 mmHg 77%
    20:00 +13°C° 0 mm 1 mps 764 mmHg 84%
    21:00 +12°C° 0 mm 1 mps 764 mmHg 84%
    22:00 +12°C° 0 mm 1 mps 764 mmHg 85%
    23:00 +12°C° 0 mm 1 mps 764 mmHg 85%

    30 March, Saturday

    Time Temperature Precipitation Wind Pressure Humidity
    00:00 +12°C° 0 mm 1 mps 763 mmHg 84%
    01:00 +12°C° 0 mm 1 mps 763 mmHg 83%
    02:00 +12°C° 0 mm 1 mps 763 mmHg 81%
    03:00 +12°C° 0 mm 1 mps 763 mmHg 80%
    04:00 +12°C° 0 mm 1 mps 763 mmHg 79%
    05:00 +12°C° 0 mm 1 mps 763 mmHg 78%
    06:00 +14°C° 0 mm 1 mps 762 mmHg 71%
    07:00 +15°C° 0 mm 1 mps 762 mmHg 64%
    08:00 +18°C° 0 mm 1 mps 762 mmHg 57%
    09:00 +19°C° 0 mm 1 mps 762 mmHg 51%
    10:00 +20°C° 0 mm 2 mps 762 mmHg 44%
    11:00 +23°C° 0 mm 2 mps 762 mmHg 37%
    12:00 +23°C° 0 mm 2 mps 761 mmHg 39%
    13:00 +21°C° 0 mm 3 mps 761 mmHg 41%
    14:00 +21°C° 0 mm 3 mps 761 mmHg 43%
    15:00 +20°C° 0 mm 3 mps 761 mmHg 49%
    16:00 +19°C° 0 mm 3 mps 761 mmHg 56%
    17:00 +17°C° 0 mm 2 mps 761 mmHg 63%
    18:00 +16°C° 0 mm 2 mps 761 mmHg 68%
    19:00 +14°C° 0 mm 2 mps 761 mmHg 73%
    20:00 +13°C° 0 mm 1 mps 762 mmHg 78%
    21:00 +13°C° 0 mm 2 mps 762 mmHg 76%
    22:00 +12°C° 0 mm 2 mps 761 mmHg 74%
    23:00 +12°C° 0 mm 2 mps 761 mmHg 73%

    31 March, Sunday

    Time Temperature Precipitation Wind Pressure Humidity
    00:00 +12°C° 0 mm 2 mps 761 mmHg 74%
    01:00 +12°C° 0 mm 2 mps 761 mmHg 74%
    02:00 +10°C° 0 mm 2 mps 760 mmHg 75%
    03:00 +10°C° 0 mm 2 mps 760 mmHg 77%
    04:00 +10°C° 0 mm 2 mps 760 mmHg 80%
    05:00 +9°C° 0 mm 2 mps 760 mmHg 82%
    06:00 +11°C° 0 mm 3 mps 760 mmHg 77%
    07:00 +13°C° 0 mm 3 mps 760 mmHg 71%
    08:00 +16°C° 0 mm 3 mps 760 mmHg 66%
    09:00 +17°C° 0 mm 4 mps 760 mmHg 59%
    10:00 +19°C° 0 mm 4 mps 760 mmHg 52%
    11:00 +21°C° 0 mm 5 mps 760 mmHg 45%
    12:00 +21°C° 0 mm 5 mps 760 mmHg 43%
    13:00 +21°C° 0 mm 6 mps 760 mmHg 42%
    14:00 +21°C° 0 mm 6 mps 759 mmHg 41%
    15:00 +19°C° 0 mm 6 mps 759 mmHg 46%
    16:00 +17°C° 0 mm 7 mps 760 mmHg 50%
    17:00 +16°C° 0 mm 7 mps 760 mmHg 55%
    18:00 +15°C° 0 mm 6 mps 760 mmHg 58%
    19:00 +14°C° 0 mm 6 mps 761 mmHg 60%
    20:00 +13°C° 0 mm 5 mps 761 mmHg 63%
    21:00 +12°C° 0 mm 5 mps 761 mmHg 64%
    22:00 +12°C° 0 mm 5 mps 761 mmHg 64%
    23:00 +12°C° 0 mm 5 mps 761 mmHg 65%
    Show more